When you browse on this site, cookies collect data to enhance your experience and personalize the content and advertising you see.
Visit our Privacy Policy to learn more. By continuing to use the site, you agree to this use of cookies and data.
  • en Belgique
  • Liste des pays
  • À 7 jours
  • Température de l'eau
  • Carte satellitaire
  • Carte météo
  • Widgets météo
  • user-avatar
    Se connecter

    Météo par heure à Goryushkino

    Ce jour, 24 Avril, Mercredi

    Heure Température Précipitation Vent Pression Humidité
    00:00 +12°C° 0 mm 3 m/s 757 mmHg 55%
    01:00 +12°C° 0 mm 3 m/s 757 mmHg 57%
    02:00 +12°C° 0 mm 3 m/s 757 mmHg 60%
    03:00 +12°C° 0 mm 2 m/s 757 mmHg 60%
    04:00 +12°C° 0 mm 2 m/s 757 mmHg 62%
    05:00 +10°C° 0 mm 2 m/s 757 mmHg 64%
    06:00 +10°C° 0 mm 2 m/s 757 mmHg 66%
    07:00 +13°C° 0 mm 2 m/s 757 mmHg 61%
    08:00 +13°C° 0 mm 3 m/s 757 mmHg 56%
    09:00 +16°C° 0 mm 3 m/s 757 mmHg 50%
    10:00 +18°C° 0 mm 3 m/s 757 mmHg 46%
    11:00 +19°C° 0 mm 3 m/s 757 mmHg 42%
    12:00 +20°C° 0 mm 4 m/s 757 mmHg 38%
    13:00 +21°C° 0 mm 4 m/s 757 mmHg 37%
    14:00 +21°C° 0 mm 4 m/s 757 mmHg 36%
    15:00 +22°C° 0 mm 3 m/s 757 mmHg 33%
    16:00 +22°C° 0 mm 3 m/s 756 mmHg 35%
    17:00 +23°C° 0 mm 2 m/s 756 mmHg 38%
    18:00 +23°C° 0 mm 2 m/s 756 mmHg 40%
    19:00 +20°C° 0 mm 2 m/s 756 mmHg 44%
    20:00 +18°C° 0 mm 2 m/s 756 mmHg 47%
    21:00 +17°C° 0 mm 2 m/s 756 mmHg 51%
    22:00 +16°C° 0 mm 2 m/s 756 mmHg 53%
    23:00 +15°C° 0 mm 2 m/s 756 mmHg 55%

    Demain, 25 Avril, Jeudi

    Heure Température Précipitation Vent Pression Humidité
    00:00 +15°C° 0 mm 2 m/s 756 mmHg 57%
    01:00 +14°C° 0 mm 2 m/s 756 mmHg 58%
    02:00 +14°C° 0 mm 2 m/s 756 mmHg 60%
    03:00 +13°C° 0 mm 2 m/s 757 mmHg 61%
    04:00 +13°C° 0 mm 2 m/s 757 mmHg 62%
    05:00 +13°C° 0 mm 2 m/s 757 mmHg 63%
    06:00 +13°C° 0 mm 2 m/s 757 mmHg 64%
    07:00 +15°C° 0 mm 2 m/s 757 mmHg 59%
    08:00 +16°C° 0 mm 2 m/s 757 mmHg 54%
    09:00 +18°C° 0 mm 2 m/s 757 mmHg 48%
    10:00 +20°C° 0 mm 2 m/s 757 mmHg 44%
    11:00 +21°C° 0 mm 2 m/s 756 mmHg 40%
    12:00 +24°C° 0 mm 2 m/s 756 mmHg 36%
    13:00 +24°C° 0 mm 2 m/s 756 mmHg 34%
    14:00 +24°C° 0 mm 2 m/s 756 mmHg 33%
    15:00 +25°C° 0 mm 2 m/s 756 mmHg 32%
    16:00 +25°C° 0 mm 2 m/s 755 mmHg 34%
    17:00 +24°C° 0 mm 2 m/s 755 mmHg 37%
    18:00 +24°C° 0 mm 2 m/s 755 mmHg 39%
    19:00 +21°C° 0 mm 2 m/s 754 mmHg 43%
    20:00 +20°C° 0 mm 2 m/s 754 mmHg 47%
    21:00 +18°C° 0 mm 2 m/s 754 mmHg 51%
    22:00 +17°C° 0 mm 2 m/s 754 mmHg 53%
    23:00 +17°C° 0 mm 2 m/s 754 mmHg 54%

    Après-demain, 26 Avril, Vendredi

    Heure Température Précipitation Vent Pression Humidité
    00:00 +16°C° 0 mm 2 m/s 754 mmHg 56%
    01:00 +16°C° 0 mm 2 m/s 754 mmHg 58%
    02:00 +15°C° 0 mm 2 m/s 754 mmHg 60%
    03:00 +15°C° 0 mm 2 m/s 754 mmHg 61%
    04:00 +14°C° 0 mm 2 m/s 754 mmHg 63%
    05:00 +14°C° 0 mm 1 m/s 754 mmHg 64%
    06:00 +14°C° 0 mm 1 m/s 754 mmHg 66%
    07:00 +16°C° 0 mm 1 m/s 754 mmHg 61%
    08:00 +18°C° 0 mm 1 m/s 754 mmHg 57%
    09:00 +20°C° 0 mm 1 m/s 754 mmHg 52%
    10:00 +21°C° 0 mm 1 m/s 754 mmHg 47%
    11:00 +23°C° 0 mm 1 m/s 754 mmHg 43%
    12:00 +24°C° 0 mm 1 m/s 754 mmHg 38%
    13:00 +22°C° 0 mm 0 m/s 753 mmHg 39%
    14:00 +22°C° 0 mm 0 m/s 753 mmHg 41%
    15:00 +21°C° 0 mm 0 m/s 753 mmHg 42%
    16:00 +21°C° 0 mm 0 m/s 753 mmHg 44%
    17:00 +20°C° 0 mm 0 m/s 752 mmHg 47%
    18:00 +19°C° 0 mm 0 m/s 752 mmHg 49%
    19:00 +18°C° 0.5 mm 0 m/s 752 mmHg 54%
    20:00 +19°C° 0.5 mm 1 m/s 752 mmHg 59%
    21:00 +18°C° 0.5 mm 1 m/s 752 mmHg 63%
    22:00 +16°C° 0.2 mm 1 m/s 752 mmHg 66%
    23:00 +15°C° 0.2 mm 0 m/s 752 mmHg 68%

    27 Avril, Samedi

    Heure Température Précipitation Vent Pression Humidité
    00:00 +14°C° 0.2 mm 0 m/s 752 mmHg 71%
    01:00 +14°C° 0 mm 0 m/s 751 mmHg 72%
    02:00 +14°C° 0 mm 1 m/s 751 mmHg 73%
    03:00 +14°C° 0 mm 1 m/s 751 mmHg 74%
    04:00 +14°C° 0 mm 1 m/s 751 mmHg 75%
    05:00 +14°C° 0 mm 2 m/s 750 mmHg 75%
    06:00 +14°C° 0 mm 2 m/s 750 mmHg 75%
    07:00 +15°C° 0 mm 2 m/s 750 mmHg 70%
    08:00 +17°C° 0 mm 3 m/s 750 mmHg 64%
    09:00 +19°C° 0 mm 3 m/s 750 mmHg 59%
    10:00 +20°C° 0 mm 3 m/s 750 mmHg 53%
    11:00 +21°C° 0 mm 4 m/s 749 mmHg 47%
    12:00 +22°C° 0 mm 4 m/s 749 mmHg 41%
    13:00 +22°C° 0 mm 4 m/s 749 mmHg 42%
    14:00 +22°C° 0 mm 4 m/s 748 mmHg 42%
    15:00 +22°C° 0 mm 4 m/s 748 mmHg 43%
    16:00 +21°C° 0 mm 4 m/s 747 mmHg 47%
    17:00 +21°C° 0 mm 3 m/s 747 mmHg 52%
    18:00 +20°C° 0 mm 3 m/s 747 mmHg 56%
    19:00 +19°C° 0 mm 3 m/s 747 mmHg 59%
    20:00 +18°C° 0 mm 3 m/s 747 mmHg 62%
    21:00 +16°C° 0 mm 3 m/s 746 mmHg 65%
    22:00 +16°C° 0 mm 3 m/s 746 mmHg 66%
    23:00 +14°C° 0 mm 3 m/s 746 mmHg 67%

    28 Avril, Dimanche

    Heure Température Précipitation Vent Pression Humidité
    00:00 +15°C° 0 mm 2 m/s 746 mmHg 69%
    01:00 +13°C° 0 mm 3 m/s 746 mmHg 70%
    02:00 +13°C° 0 mm 3 m/s 746 mmHg 71%
    03:00 +12°C° 0 mm 3 m/s 745 mmHg 72%
    04:00 +12°C° 0 mm 3 m/s 745 mmHg 73%
    05:00 +12°C° 0 mm 3 m/s 745 mmHg 75%
    06:00 +11°C° 0 mm 3 m/s 745 mmHg 76%
    07:00 +13°C° 0 mm 3 m/s 745 mmHg 71%
    08:00 +16°C° 0 mm 3 m/s 745 mmHg 66%
    09:00 +18°C° 0 mm 3 m/s 744 mmHg 61%
    10:00 +18°C° 0.4 mm 3 m/s 744 mmHg 64%
    11:00 +17°C° 0.4 mm 3 m/s 744 mmHg 68%
    12:00 +17°C° 0.4 mm 3 m/s 744 mmHg 71%
    13:00 +16°C° 2.1 mm 3 m/s 744 mmHg 78%
    14:00 +16°C° 2.1 mm 3 m/s 745 mmHg 84%
    15:00 +14°C° 2.1 mm 3 m/s 745 mmHg 90%
    16:00 +13°C° 1.5 mm 4 m/s 745 mmHg 89%
    17:00 +13°C° 1.5 mm 5 m/s 745 mmHg 88%
    18:00 +12°C° 1.5 mm 7 m/s 745 mmHg 87%
    19:00 +11°C° 0 mm 7 m/s 746 mmHg 85%
    20:00 +10°C° 0 mm 7 m/s 747 mmHg 83%
    21:00 +9°C° 0 mm 7 m/s 747 mmHg 82%
    22:00 +8°C° 0 mm 7 m/s 748 mmHg 79%
    23:00 +8°C° 0 mm 7 m/s 748 mmHg 76%

    29 Avril, Lundi

    Heure Température Précipitation Vent Pression Humidité
    00:00 +6°C° 0 mm 7 m/s 749 mmHg 74%
    01:00 +6°C° 0 mm 7 m/s 749 mmHg 73%
    02:00 +5°C° 0 mm 7 m/s 750 mmHg 72%
    03:00 +5°C° 0 mm 7 m/s 750 mmHg 72%
    04:00 +4°C° 0 mm 7 m/s 751 mmHg 70%
    05:00 +3°C° 0 mm 7 m/s 751 mmHg 68%
    06:00 +3°C° 0 mm 7 m/s 752 mmHg 66%
    07:00 +3°C° 0 mm 7 m/s 752 mmHg 62%
    08:00 +3°C° 0 mm 7 m/s 752 mmHg 58%
    09:00 +4°C° 0 mm 7 m/s 753 mmHg 54%
    10:00 +4°C° 0 mm 7 m/s 753 mmHg 51%
    11:00 +5°C° 0 mm 7 m/s 753 mmHg 48%
    12:00 +6°C° 0 mm 7 m/s 753 mmHg 45%
    13:00 +6°C° 0 mm 7 m/s 753 mmHg 45%
    14:00 +7°C° 0 mm 6 m/s 753 mmHg 44%
    15:00 +7°C° 0 mm 6 m/s 753 mmHg 44%
    16:00 +7°C° 0 mm 5 m/s 753 mmHg 46%
    17:00 +7°C° 0 mm 5 m/s 753 mmHg 48%
    18:00 +7°C° 0 mm 4 m/s 753 mmHg 50%
    19:00 +6°C° 0 mm 4 m/s 753 mmHg 53%
    20:00 +5°C° 0 mm 4 m/s 753 mmHg 55%
    21:00 +5°C° 0 mm 3 m/s 753 mmHg 58%
    22:00 +4°C° 0 mm 3 m/s 753 mmHg 59%
    23:00 +4°C° 0 mm 3 m/s 754 mmHg 61%
    Voir plus